Weather observations for the past three days for
Duncan, Halliburton Field Airport
Imperial (Metric)
Date Time (cdt) Wind (mph) Vis. (mi.) Weather Sky Cond. Temperature (ºF) Relative Humidity Wind Chill (°F) Heat Index (°F) Pressure Precipitation (in)
Air Dwpt 6 hour altimeter (in) sea level (mb) 1 hr 3 hr 6 hr
Max. Min.
24 10:15 Calm 10.00 Fair CLR 80.6 69.8 70% 84 30.18 0.0
24 09:55 Calm 10.00 Fair CLR 80.6 69.8 70% 84 30.17 0.0
24 09:35 Calm 10.00 Fair CLR 78.8 71.6 79% 82 30.17 0.0
24 09:15 Calm 10.00 Fair CLR 77 69.8 79% 79 30.17 0.0
24 08:55 S 3 10.00 Fair CLR 75.2 69.8 83% 75 30.17 0.0
24 08:35 Calm 7.00 Fair CLR 73.4 69.8 89% 30.17 0.0
24 08:15 Calm 7.00 Fair CLR 73.4 69.8 89% 30.17 0.0
24 07:55 Calm 7.00 Fair CLR 71.6 69.8 94% 30.17 0.0
24 07:35 Calm 7.00 Fog/Mist CLR 69.8 69.8 100% 30.16 0.0
24 07:15 E 3 7.00 Fog/Mist CLR 69.8 69.8 100% 30.16 0.0
24 06:55 E 5 5.00 Fog/Mist CLR 68 68 100% 30.15 0.0
24 06:35 E 3 7.00 Fog/Mist CLR 68 68 100% 30.15 0.0
24 06:15 E 3 10.00 Fair CLR 69.8 68 94% 30.14 0.0
24 05:55 Calm 10.00 Fair CLR 69.8 68 94% 30.14 0.0
24 05:35 E 6 10.00 Fair CLR 69.8 68 94% 30.14 0.0
24 05:15 E 5 10.00 Fair CLR 69.8 68 94% 30.14 0.0
24 04:55 E 5 10.00 Fair CLR 69.8 68 94% 30.13 0.0
24 04:35 Calm 10.00 Fair CLR 69.8 68 94% 30.13 0.0
24 04:15 Calm 10.00 Fair CLR 71.6 68 88% 30.13 0.0
24 03:55 SE 3 10.00 Fair CLR 69.8 68 94% 30.13 0.0
24 03:35 SE 3 10.00 Fair CLR 71.6 68 88% 30.13 0.0
24 03:15 SE 5 10.00 Fair CLR 71.6 68 88% 30.13 0.0
24 02:55 E 5 10.00 Fair CLR 71.6 66.2 83% 30.12 0.0
24 02:35 E 6 10.00 Fair CLR 71.6 68 88% 30.12 0.0
24 02:15 E 5 10.00 Fair CLR 71.6 68 88% 30.11 0.0
24 01:55 E 6 10.00 Fair CLR 71.6 68 88% 30.11 0.0
24 01:35 E 6 10.00 Fair CLR 73.4 68 83% 30.11 0.0
24 01:15 E 5 10.00 Fair CLR 73.4 68 83% 30.12 0.0
24 00:55 E 7 10.00 Fair CLR 73.4 68 83% 30.12 0.0
24 00:35 E 6 10.00 Fair CLR 73.4 68 83% 30.12 0.0
24 00:15 E 6 10.00 Fair CLR 73.4 68 83% 30.11 0.0
23 23:55 E 6 10.00 Fair CLR 75.2 68 78% 76 30.11 0.0
23 23:35 E 5 10.00 Fair CLR 75.2 68 78% 76 30.1 0.0
23 23:15 SE 3 10.00 Fair CLR 75.2 68 78% 76 30.1 0.0
23 22:55 SE 3 10.00 Fair CLR 77 68 74% 79 30.1 0.0
23 22:35 Calm 10.00 Fair CLR 77 68 74% 79 30.09 0.0
23 22:15 S 3 10.00 Fair CLR 78.8 68 70% 81 30.09 0.0
23 21:55 SE 5 10.00 Fair CLR 78.8 68 70% 81 30.08 0.0
23 21:35 SE 6 10.00 Fair CLR 78.8 68 70% 81 30.07 0.0
23 21:15 SE 8 10.00 Fair CLR 80.6 64.4 58% 82 30.07 0.0
23 20:55 SE 6 10.00 Fair CLR 80.6 64.4 58% 82 30.06 0.0
23 20:35 E 5 10.00 Fair CLR 84.2 64.4 51% 86 30.05 0.0
23 20:15 E 6 10.00 Fair CLR 86 64.4 49% 87 30.05 0.0
23 19:55 E 5 10.00 Fair CLR 86 64.4 49% 87 30.04 0.0
23 19:35 E 6 10.00 Fair CLR 87.8 62.6 43% 88 30.05 0.0
23 19:15 E 8 10.00 Partly Cloudy SCT065 87.8 62.6 43% 88 30.03 0.0
23 18:55 NE 6 10.00 Partly Cloudy SCT065 87.8 62.6 43% 88 30.03 0.0
23 18:35 SE 7 10.00 Fair CLR 89.6 60.8 38% 90 30.03 0.0
23 18:15 E 9 10.00 Fair CLR 89.6 60.8 38% 90 30.03 0.0
23 17:55 E 9 10.00 Fair CLR 89.6 60.8 38% 90 30.03 0.0
23 17:35 E 8 10.00 Fair CLR 89.6 59 36% 89 30.04 0.0
23 17:15 SE 5 10.00 Fair CLR 89.6 59 36% 89 30.04 0.0
23 16:55 SE 7 10.00 Fair CLR 89.6 59 36% 89 30.04 0.0
23 16:35 SE 7 10.00 Fair CLR 89.6 60.8 38% 90 30.05 0.0
23 16:15 E 5 10.00 Fair CLR 89.6 60.8 38% 90 30.05 0.0
23 15:55 E 9 10.00 Fair CLR 87.8 60.8 40% 88 30.06 0.0
23 15:35 NE 8 10.00 Fair CLR 87.8 60.8 40% 88 30.06 0.0
23 15:15 N 3 0.00 Partly Cloudy SCT065 SCT070 87.8 60.8 40% 88 30.06 0.0
23 14:55 E 6 10.00 Mostly Cloudy BKN065 BKN070 86 62.6 46% 87 30.06 0.0
23 14:35 N 5 10.00 Partly Cloudy SCT050 86 62.6 46% 87 30.07 0.0
23 14:15 NE 10 10.00 Partly Cloudy SCT050 87.8 64.4 46% 89 30.07 0.0
23 13:55 NE 8 10.00 Partly Cloudy SCT050 86 62.6 46% 87 30.08 0.0
23 13:35 E 6 10.00 Partly Cloudy SCT050 SCT065 87.8 62.6 43% 88 30.08 0.0
23 13:15 N 8 10.00 Mostly Cloudy SCT050 BKN065 86 62.6 46% 87 30.09 0.0
23 12:55 E 10 10.00 Partly Cloudy SCT050 86 60.8 43% 86 30.09 0.0
23 12:35 NE 5 10.00 Partly Cloudy SCT046 84.2 62.6 48% 85 30.09 0.0
23 12:15 NE 5 10.00 Partly Cloudy SCT044 84.2 62.6 48% 85 30.09 0.0
23 11:55 SE 5 10.00 Partly Cloudy SCT042 SCT048 84.2 62.6 48% 85 30.1 0.0
23 11:35 E 5 10.00 Partly Cloudy SCT042 84.2 64.4 51% 86 30.1 0.0
23 11:15 NE 5 7.00 Fair CLR 82.4 64.4 55% 84 30.1 0.0
23 10:55 NE 6 10.00 Fair CLR 82.4 64.4 55% 84 30.1 0.0
23 10:35 NE 6 10.00 Fair CLR 82.4 64.4 55% 84 30.09 0.0
23 10:15 NE 7 10.00 Fair CLR 80.6 66.2 62% 83 30.09 0.0
23 09:55 E 3 10.00 Fair CLR 80.6 68 66% 83 30.09 0.0
23 09:35 E 6 10.00 Fair CLR 78.8 66.2 65% 81 30.09 0.0
23 09:15 Calm 0.00 NULL NULL 77 68 74% 79 30.09 0.0
23 08:50 NE 5 10.00 Fair CLR 77 66.2 69% 79 30.09 0.0
23 08:30 NE 5 10.00 NULL NULL 75.2 68 78% 76 30.09 0.0
23 08:15 Calm 0.00 NULL NULL 0 0 0% 30.09 0.0
Date Time (cdt) Wind (mph) Vis. (mi.) Weather Sky Cond. Air Dwpt Max. Min. Relative Humidity Wind Chill (°F) Heat Index (°F) altimeter (in) sea level (mb) 1 hr 3 hr 6 hr
6 hour
Temperature (ºF) Pressure Precipitation (in)